Weather History for KS25 - May, 2014

Change the Weather History Date:

Friday, May 9, 2014

  Actual Average (KISN) Record (KISN)
Temperature  
Mean Temperature 47 °F 52 °F  
Max Temperature 66 °F 66 °F 90 °F (1977)
Min Temperature 28 °F 38 °F 21 °F (1909)
Degree Days  
Heating Degree Days 18 13  
Month to date heating degree days 131  
Since 1 July heating degree days 8656  
Cooling Degree Days 0 0  
Month to date cooling degree days 0  
Year to date cooling degree days 1  
Moisture  
Dew Point 28 °F    
Average Humidity 52    
Maximum Humidity 93    
Minimum Humidity 23    
Precipitation  
Precipitation 0.00 in 0.05 in 1.73 in (1953)
Month to date precipitation 0.45  
Year to date precipitation 3.14  
Snow  
Snow 0.00 in 0.10 in 9.20 in (1927)
Month to date snowfall 0.6  
Since 1 July snowfall 44.6  
Snow Depth -    
Sea Level Pressure  
Sea Level Pressure 29.70 in    
Wind  
Wind Speed 4 mph (South)    
Max Wind Speed 13 mph    
Max Gust Speed 21 mph    
Visibility 10 miles    
Events      
T = Trace of Precipitation, MM = Missing Value Source: NWS Daily Summary

Daily Weather History Graph

Daily Weather History Graph

Search for Another Location

Airport or City:

Trip Planner

Search our weather history database for the weather conditions in past years. The results will help you decide how hot, cold, wet, or windy it might be!

Date:

Astronomy

May. 09, 2014 Rise Set
Actual Time 6:23 AM CDT 9:16 PM CDT
Civil Twilight 5:47 AM CDT 9:52 PM CDT
Nautical Twilight 5:01 AM CDT 10:38 PM CDT
Astronomical Twilight 4:06 AM CDT 11:34 PM CDT
Moon 3:54 PM CDT (5/9) 3:50 AM CDT (5/9)
Length of Visible Light 16h 05m
Length of Day
14h 53m
Waxing Gibbous, 74% of the Moon is Illuminated
May 9
Waxing Gibbous
May 14
Full
May 21
Last Quarter
May 28
New
Jun 5
First Quarter

Hourly Weather History & Observations

Time (CDT) Temp. Windchill Dew Point Humidity Pressure Visibility Wind Dir Wind Speed Gust Speed Precip Events Conditions
12:15 AM 35.6 °F 32.8 °F 26.6 °F 70% 29.81 in 10.0 mi SW 3.5 mph - N/A   Clear
12:35 AM 35.6 °F - 24.8 °F 65% 29.81 in 10.0 mi Calm Calm - N/A   Clear
12:55 AM 32.0 °F - 26.6 °F 80% 29.80 in 10.0 mi Calm Calm - N/A   Clear
1:15 AM 32.0 °F - 28.4 °F 87% 29.80 in 10.0 mi Calm Calm - N/A   Clear
1:35 AM 32.0 °F 28.7 °F 28.4 °F 87% 29.80 in 10.0 mi SW 3.5 mph - N/A   Clear
1:55 AM 32.0 °F - 26.6 °F 80% 29.80 in 10.0 mi Calm Calm - N/A   Clear
2:15 AM 32.0 °F - 26.6 °F 80% 29.79 in 10.0 mi Calm Calm - N/A   Clear
2:35 AM 32.0 °F - 26.6 °F 80% 29.78 in 10.0 mi Calm Calm - N/A   Clear
2:55 AM 30.2 °F - 26.6 °F 86% 29.78 in 10.0 mi Calm Calm - N/A   Clear
3:15 AM 28.4 °F - 26.6 °F 93% 29.78 in 10.0 mi Calm Calm - N/A   Clear
3:35 AM 28.4 °F - 24.8 °F 86% 29.77 in 10.0 mi Calm Calm - N/A   Clear
4:15 AM 28.4 °F - 26.6 °F 93% 29.77 in 10.0 mi Calm Calm - N/A   Clear
4:35 AM 28.4 °F - 24.8 °F 86% 29.77 in 10.0 mi Calm Calm - N/A   Clear
4:55 AM 28.4 °F 23.3 °F 24.8 °F 86% 29.76 in 10.0 mi SE 4.6 mph - N/A   Clear
5:35 AM 28.4 °F - 26.6 °F 93% 29.75 in 10.0 mi Calm Calm - N/A   Clear
5:55 AM 28.4 °F - 24.8 °F 86% 29.75 in 10.0 mi Calm Calm - N/A   Clear
6:15 AM 28.4 °F - 24.8 °F 86% 29.75 in 10.0 mi Calm Calm - N/A   Clear
6:35 AM 28.4 °F - 26.6 °F 93% 29.75 in 9.0 mi Calm Calm - N/A   Clear
6:55 AM 28.4 °F - 24.8 °F 86% 29.74 in 10.0 mi Calm Calm - N/A   Clear
7:15 AM 30.2 °F 26.7 °F 26.6 °F 86% 29.74 in 10.0 mi ESE 3.5 mph - N/A   Clear
7:35 AM 32.0 °F - 28.4 °F 87% 29.74 in 10.0 mi Calm Calm - N/A   Clear
7:55 AM 32.0 °F - 28.4 °F 87% 29.74 in 10.0 mi Calm Calm - N/A   Clear
8:15 AM 35.6 °F - 28.4 °F 75% 29.74 in 10.0 mi Calm Calm - N/A   Clear
8:35 AM 37.4 °F - 28.4 °F 70% 29.74 in 10.0 mi Calm Calm - N/A   Clear
8:55 AM 41.0 °F - 32.0 °F 70% 29.74 in 8.0 mi Calm Calm - N/A   Clear
9:15 AM 42.8 °F - 32.0 °F 66% 29.73 in 10.0 mi Calm Calm - N/A   Clear
9:35 AM 44.6 °F - 32.0 °F 61% 29.73 in 10.0 mi Calm Calm - N/A   Clear
9:55 AM 48.2 °F - 33.8 °F 58% 29.73 in 9.0 mi Calm Calm - N/A   Clear
10:15 AM 51.8 °F - 32.0 °F 47% 29.72 in 10.0 mi Calm Calm - N/A   Clear
10:35 AM 53.6 °F - 32.0 °F 44% 29.72 in 4.0 mi SSW 4.6 mph - N/A   Haze
10:55 AM 55.4 °F - 28.4 °F 36% 29.71 in 9.0 mi South 9.2 mph - N/A   Clear
11:15 AM 55.4 °F - 28.4 °F 36% 29.71 in 10.0 mi SW 8.1 mph - N/A   Clear
11:35 AM 55.4 °F - 28.4 °F 36% 29.71 in 9.0 mi South 8.1 mph - N/A   Clear
11:55 AM 57.2 °F - 28.4 °F 33% 29.70 in 8.0 mi SSW 5.8 mph - N/A   Clear
12:15 PM 57.2 °F - 28.4 °F 33% 29.69 in 10.0 mi SSW 4.6 mph - N/A   Clear
12:35 PM 57.2 °F - 28.4 °F 33% 29.69 in 10.0 mi SSE 8.1 mph - N/A   Clear
12:55 PM 57.2 °F - 26.6 °F 31% 29.68 in 10.0 mi South 5.8 mph - N/A   Clear
1:15 PM 59.0 °F - 28.4 °F 31% 29.68 in 10.0 mi South 5.8 mph - N/A   Clear
1:35 PM 60.8 °F - 28.4 °F 29% 29.67 in 10.0 mi SSW 10.4 mph 17.3 mph N/A   Clear
1:55 PM 60.8 °F - 26.6 °F 27% 29.67 in 10.0 mi SSW 8.1 mph 16.1 mph N/A   Clear
2:15 PM 62.6 °F - 28.4 °F 27% 29.66 in 10.0 mi South 6.9 mph 17.3 mph N/A   Clear
2:35 PM 62.6 °F - 26.6 °F 26% 29.66 in 10.0 mi SSE 11.5 mph 17.3 mph N/A   Clear
2:55 PM 62.6 °F - 26.6 °F 26% 29.65 in 10.0 mi South 12.7 mph 18.4 mph N/A   Clear
3:15 PM 62.6 °F - 26.6 °F 26% 29.65 in 10.0 mi South 10.4 mph - N/A   Clear
3:35 PM 62.6 °F - 26.6 °F 26% 29.65 in 10.0 mi South 10.4 mph - N/A   Clear
3:55 PM 64.4 °F - 26.6 °F 24% 29.64 in 10.0 mi South 9.2 mph 19.6 mph N/A   Clear
4:15 PM 64.4 °F - 26.6 °F 24% 29.64 in 10.0 mi SE 5.8 mph - N/A   Clear
4:35 PM 66.2 °F - 26.6 °F 23% 29.63 in 10.0 mi South 11.5 mph 18.4 mph N/A   Clear
4:55 PM 64.4 °F - 26.6 °F 24% 29.63 in 10.0 mi South 6.9 mph 20.7 mph N/A   Clear
5:15 PM 66.2 °F - 26.6 °F 23% 29.62 in 10.0 mi South 10.4 mph 17.3 mph N/A   Clear
5:35 PM 64.4 °F - 26.6 °F 24% 29.62 in 10.0 mi SSW 8.1 mph - N/A   Clear
5:55 PM 64.4 °F - 26.6 °F 24% 29.62 in 10.0 mi SSE 10.4 mph - N/A   Clear
6:15 PM 66.2 °F - 26.6 °F 23% 29.61 in 10.0 mi South 11.5 mph - N/A   Clear
6:55 PM 64.4 °F - 26.6 °F 24% 29.62 in 10.0 mi South 8.1 mph - N/A   Clear
7:15 PM 64.4 °F - 26.6 °F 24% 29.62 in 10.0 mi South 8.1 mph - N/A   Clear
7:35 PM 64.4 °F - 28.4 °F 26% 29.61 in 10.0 mi South 9.2 mph - N/A   Clear
7:55 PM 64.4 °F - 28.4 °F 26% 29.61 in 10.0 mi SSE 8.1 mph - N/A   Clear
8:15 PM 62.6 °F - 28.4 °F 27% 29.61 in 10.0 mi SSE 5.8 mph - N/A   Clear
8:35 PM 59.0 °F - 30.2 °F 34% 29.61 in 10.0 mi SSE 9.2 mph - N/A   Clear
8:55 PM 57.2 °F - 28.4 °F 33% 29.61 in 10.0 mi SSE 9.2 mph - N/A   Clear
9:15 PM 57.2 °F - 28.4 °F 33% 29.62 in 9.0 mi SSE 9.2 mph - N/A   Clear
9:35 PM 55.4 °F - 28.4 °F 36% 29.62 in 10.0 mi SSE 10.4 mph - N/A   Clear
9:55 PM 55.4 °F - 28.4 °F 36% 29.63 in 10.0 mi SSE 8.1 mph - N/A   Clear
10:15 PM 50.0 °F - 32.0 °F 50% 29.64 in 10.0 mi ESE 10.4 mph - N/A   Clear
10:35 PM 50.0 °F - 32.0 °F 50% 29.64 in 10.0 mi SE 10.4 mph - N/A   Clear
10:55 PM 50.0 °F - 32.0 °F 50% 29.64 in 10.0 mi SE 10.4 mph - N/A   Clear
11:15 PM 50.0 °F - 30.2 °F 47% 29.64 in 10.0 mi SE 12.7 mph - N/A   Clear
11:35 PM 50.0 °F - 32.0 °F 50% 29.64 in 10.0 mi SE 11.5 mph - N/A   Clear
11:55 PM 48.2 °F - 32.0 °F 54% 29.64 in 10.0 mi SE 11.5 mph - N/A   Clear